This demonstration page uses our WeatherBlox Daily Observations layout. Learn more.

Left ArrowRight Arrow

41.55636, -103.73856

Hourly Observations for June 6, 2015

Temp ( °F °C ) Dew Point ( °F °C ) Humidity (%) Winds ( mph kmh ) Pressure ( in mb ) Visibility ( mi km ) Precip ( " mm )
12:53 am 00:53 Clear 63 17.2 59 15 87 87 SE 8 13 29.87 1012 10 16.0934 0 0
1:53 am 01:53 Clear 60 15.6 57 13.9 90 90 E 8 13 29.85 1011 10 16.0934 0 0
2:53 am 02:53 Mostly Clear 60 15.6 57 13.9 90 90 ESE 9 15 29.86 1011 10 16.0934 0 0
3:53 am 03:53 Clear 60 15.6 57 13.9 90 90 S 8 13 29.86 1011 10 16.0934 0 0
4:53 am 04:53 Clear 58 14.4 56 13.3 93 93 S 6 9 29.84 1010 10 16.0934 0 0
5:53 am 05:53 Sunny 60 15.6 57 13.9 90 90 SSE 9 15 29.84 1010 10 16.0934 0 0
6:53 am 06:53 Mostly Sunny 63 17.2 57 13.9 81 81 SSE 3 6 29.84 1011 10 16.0934 0 0
7:53 am 07:53 Sunny 66 18.9 57 13.9 73 73 Calm 29.85 1011 10 16.0934 0 0
8:53 am 08:53 Sunny 70 21.1 58 14.4 66 66 VRB 3 6 29.85 1011 10 16.0934 0 0
9:53 am 09:53 Sunny 73 22.8 57 13.9 57 57 NW 6 9 29.85 1011 10 16.0934 0 0
10:53 am 10:53 Sunny 77 25 56 13.3 48 48 NNW 9 15 29.83 1010 10 16.0934 0 0
11:53 am 11:53 Sunny 79 26.1 56 13.3 45 45 Calm 29.81 1010 10 16.0934 0 0
12:53 pm 12:53 Mostly Sunny 81 27.2 55 12.8 41 41 W 9 15 29.8 1009 10 16.0934 0 0
1:53 pm 13:53 Mostly Sunny 84 28.9 54 12.2 36 36 WNW 7 11 29.78 1008 10 16.0934 0 0
2:53 pm 14:53 Partly Cloudy 82 27.8 49 9.4 32 32 NNW 6 9 29.78 1008 10 16.0934 0 0
3:53 pm 15:53 Mostly Cloudy 79 26.1 51 10.6 38 38 NNW 6 9 29.79 1009 10 16.0934 0 0
4:53 pm 16:53 Mostly Sunny 80 26.7 49 9.4 34 34 WSW 13 20 29.78 1009 10 16.0934 0 0
5:53 pm 17:53 Sunny 80 26.7 53 11.7 39 39 W 13 20 29.76 1008 10 16.0934 0 0
6:53 pm 18:53 Sunny 77 25 54 12.2 45 45 NNE 9 15 29.77 1008 10 16.0934 0 0
7:53 pm 19:53 Sunny 71 21.7 58 14.4 63 63 NE 9 15 29.8 1009 10 16.0934 0 0
8:53 pm 20:53 Mostly Cloudy 69 20.6 59 15 70 70 Calm 29.81 1010 10 16.0934 0 0
9:53 pm 21:53 Mostly Clear 67 19.4 59 15 76 76 NNW 3 6 29.85 1011 10 16.0934 0 0.0254
10:53 pm 22:53 Mostly Cloudy 66 18.9 58 14.4 75 75 NNE 13 20 29.84 1010 10 16.0934 0 0
11:53 pm 23:53 Mostly Cloudy 66 18.9 60 15.6 81 81 NE 8 13 29.83 1010 10 16.0934 0 0

Powered by AerisWeather